Location: STAR School
(35.3054°N, 111.2976°W)
Time: 11:01:49
(UTC-07:00)

SR - Pass Details

Date: 26 May 2019
Orbit: 582 x 874 km, 66.7° (Epoch: 24 June)

Event Time Altitude Azimuth Distance (km) Brightness Sun altitude
Rises 20:07:30 0° 326° (NNW) 2,973 ? -7.3°
Reaches altitude 10° 20:09:46 10° 322° (NW) 2,099 ? -7.7°
Maximum altitude 20:14:23 50° 247° (WSW) 898 ? -8.5°
Drops below altitude 10° 20:19:22 10° 172° (S) 2,273 ? -9.4°
Enters shadow 20:21:17 - 169° (SSE) 3,004 ? -9.7°
